Location: Catstown
(52.4386°N, 7.2633°W)
Time: 11:46:12
(UTC+00:00)

Cosmos 1833 Rocket - Pass Details

Date: 21 January 2021
Orbit: 833 x 839 km, 71.0° (Epoch: 24 February)

Event Time Altitude Azimuth Distance (km) Brightness Sun altitude
Rises 20:55:58 0° 324° (NW) 3,393 6.5 -35.9°
Reaches altitude 10° 20:58:34 10° 317° (NW) 2,455 5.7 -36.3°
Enters shadow 21:02:29 33° 278° (W) 1,382 4.2 -36.9°
